Russell, KS

5:47 AM CDT on August 26, 2016 (GMT -0500)
Russell Municipal

Weather History for KRSL - December, 2012

Change the Weather History Date:

Friday, December 28, 2012

  Actual Average Record
Temperature  
Mean Temperature 16 °F -  
Max Temperature 24 °F 39 °F 68 °F (1984)
Min Temperature 5 °F 19 °F -8 °F (1983)
Degree Days  
Heating Degree Days 48    
Moisture  
Dew Point 8 °F    
Average Humidity 72    
Maximum Humidity 87    
Minimum Humidity 53    
Precipitation  
Precipitation 0.00 in - - ()
Sea Level Pressure  
Sea Level Pressure 30.12 in    
Wind  
Wind Speed 12 mph (NW)    
Max Wind Speed 18 mph    
Max Gust Speed 23 mph    
Visibility 10 miles    
Events      
Averages and records for this station are not official NWS values.
T = Trace of Precipitation, MM = Missing Value Source: NWS Daily Summary

Daily Weather History Graph

Daily Weather History Graph

Search for Another Location

Airport or City:

Trip Planner

Search our weather history database for the weather conditions in past years. The results will help you decide how hot, cold, wet, or windy it might be!

Date:

Astronomy

Dec. 28, 2012 Rise Set
Actual Time 7:53 AM CST 5:21 PM CST
Civil Twilight 7:23 AM CST 5:51 PM CST
Nautical Twilight 6:49 AM CST 6:24 PM CST
Astronomical Twilight 6:17 AM CST 6:57 PM CST
Moon 5:58 PM CST (12/28) 7:48 AM CST (12/28)
Length of Visible Light 10h 27m
Length of Day
9h 28m
Full, 100% of the Moon is Illuminated
Dec 28
Full
Jan 4
Last Quarter
Jan 11
New
Jan 18
First Quarter
Jan 26
Full

Hourly Weather History & Observations

Time (CST) Temp. Windchill Dew Point Humidity Pressure Visibility Wind Dir Wind Speed Gust Speed Precip Events Conditions
12:53 AM 23.0 °F 13.1 °F 17.1 °F 78% 30.04 in 10.0 mi WNW 9.2 mph - N/A   Overcast
2:53 AM 19.0 °F 6.1 °F 12.9 °F 77% 30.06 in 10.0 mi NW 12.7 mph - N/A   Overcast
3:23 AM 15.8 °F 1.4 °F 10.4 °F 79% 30.00 in 10.0 mi NW 13.8 mph - N/A   Scattered Clouds
3:53 AM 15.1 °F 0.5 °F 9.0 °F 77% 30.08 in 10.0 mi NW 13.8 mph - N/A   Clear
4:53 AM 12.2 °F -3.1 °F 6.8 °F 79% 29.99 in 10.0 mi NW 13.8 mph - N/A   Clear
5:53 AM 10.9 °F -4.7 °F 6.1 °F 81% 30.08 in 10.0 mi NW 13.8 mph - N/A   Clear
6:53 AM 9.0 °F -6.6 °F 5.0 °F 84% 30.10 in 10.0 mi NW 12.7 mph - N/A   Clear
8:53 AM 10.9 °F -5.9 °F 5.0 °F 77% 30.11 in 10.0 mi NW 16.1 mph - N/A   Clear
9:53 AM 15.1 °F -0.6 °F 7.0 °F 70% 30.12 in 10.0 mi NNW 16.1 mph - N/A   Clear
10:53 AM 19.0 °F 4.0 °F 9.0 °F 65% 30.14 in 10.0 mi NNW 17.3 mph - N/A   Clear
11:53 AM 21.0 °F 6.2 °F 10.0 °F 63% 30.13 in 10.0 mi NW 18.4 mph - N/A   Clear
12:53 PM 23.0 °F 10.6 °F 10.0 °F 58% 30.10 in 10.0 mi NW 13.8 mph 23.0 mph N/A   Clear
1:53 PM 24.1 °F 11.0 °F 9.0 °F 53% 30.09 in 10.0 mi NNW 16.1 mph - N/A   Partly Cloudy
2:53 PM 24.1 °F 11.0 °F 9.0 °F 53% 30.10 in 10.0 mi NW 16.1 mph - N/A   Clear
3:53 PM 23.0 °F 10.6 °F 9.0 °F 55% 30.12 in 10.0 mi NW 13.8 mph - N/A   Clear
4:53 PM 21.0 °F 10.6 °F 9.0 °F 60% 30.15 in 10.0 mi NW 9.2 mph - N/A   Clear
5:53 PM 15.1 °F 3.3 °F 7.0 °F 70% 30.17 in 10.0 mi NW 9.2 mph - N/A   Clear
6:53 PM 12.0 °F 0.5 °F 6.1 °F 77% 30.20 in 10.0 mi NW 8.1 mph - N/A   Clear
7:53 PM 12.0 °F 1.5 °F 6.1 °F 77% 30.20 in 10.0 mi NNW 6.9 mph - N/A   Clear
8:53 PM 10.0 °F -0.9 °F 5.0 °F 80% 30.22 in 10.0 mi NW 6.9 mph - N/A   Clear
9:53 PM 10.0 °F 3.6 °F 5.0 °F 80% 30.22 in 10.0 mi WNW 3.5 mph - N/A   Clear
10:53 PM 10.0 °F -0.9 °F 5.0 °F 80% 30.21 in 10.0 mi WNW 6.9 mph - N/A   Clear
11:53 PM 5.0 °F -5.6 °F 1.9 °F 87% 30.24 in 10.0 mi West 5.8 mph - N/A   Clear